Location: Unspecified
(0.0000°N, 0.0000°E)
Time: 16:41:46
(UTC+00:00)

deb Delta 126 - Pass Details

Date: 24 February 2026
Orbit: 1501 x 2092 km, 101.9° (Epoch: 8 March)

Event Time Altitude Azimuth Distance (km) Brightness Sun altitude
Rises 02:00:39 0° 55° (NE) 4,852 ? -61.6°
Reaches altitude 10° 02:05:01 10° 75° (ENE) 3,963 ? -60.6°
Maximum altitude 02:10:25 17° 111° (ESE) 3,571 ? -59.3°
Drops below altitude 10° 02:16:06 10° 146° (SE) 4,228 ? -58.0°
Sets 02:20:54 0° 164° (SSE) 5,332 ? -56.8°
